Location: Assche-ter-Heiden
(50.9174°N, 4.1574°E)
Time: 18:44:20
(UTC+00:00)

Cosmos 2181 Rocket - Pass Details

Date: 20 January 2020
Orbit: 953 x 1014 km, 82.9° (Epoch: 16 February)

Event Time Altitude Azimuth Distance (km) Brightness Sun altitude
Rises 05:27:35 0° 180° (S) 3,637 7.1 -19.7°
Reaches altitude 10° 05:30:04 10° 179° (S) 2,701 6.4 -19.3°
Maximum altitude 05:36:13 73° 96° (E) 1,022 4.2 -18.3°
Drops below altitude 10° 05:42:32 10° 13° (NNE) 2,762 6.4 -17.4°
Sets 05:45:05 0° 12° (NNE) 3,724 7.1 -17.0°
